Home   Weather   Nijmegen   Past weeks

Flag for Netherlands Past Weather in Nijmegen, Netherlands — Yesterday and Last 2 Weeks

Now
27 °F

Chilly.


Feels Like: 20 °F
Forecast: 24 / 36 °F
Wind: 6 mph from East

Location: Volkel

Current Time: Dec 5, 2016 at 1:34:53 am

Latest Report: Dec 5, 2016 at 12:55 am


Visibility: N/A

Pressure: 30.30 "Hg

Humidity: 80%

Dew Point: 21 °F

Location of NijmegenLocation

Past Weather in Nijmegen — Graph

°F

Nijmegen Temperature Yesterday

Maximum temperature yesterday: 39 °F (at 1:25 pm)
Minimum temperature yesterday: 23 °F (at 7:02 am)
Average temperature yesterday: 29 °F

High & Low Weather Summary for the Past Weeks

 TemperatureHumidityPressure
High59 °F (Nov 21, 1:55 pm)100% (Nov 20, 11:25 pm)30.57 "Hg (Nov 20, 11:25 pm)
Low19 °F (Nov 30, 12:55 am)57% (Nov 25, 1:25 pm)29.15 "Hg (Nov 20, 11:25 am)
Average39 °F86%30.12 "Hg
* Reported Nov 19 11:25 pm — Dec 4 11:55 pm, Nijmegen, Weather by CustomWeather, © 2016

Note: Actual official high and low records may vary slightly from our data, if they occured in-between our weather recording intervals... More about our weather records

Advertising

Nijmegen Weather History for the Previous 24 Hours

Scroll right to see more
 ConditionsComfort  
Time TempWeatherWind HumidityBarometerVisibility
11:55 pm
Sun, Dec 4
28 °FPassing clouds.7 mph74%30.30 "HgN/A
11:25 pm30 °FChilly.8 mph69%30.30 "HgN/A
10:55 pm30 °FChilly.7 mph69%30.30 "HgN/A
10:25 pm28 °FChilly.8 mph74%30.30 "HgN/A
9:55 pm27 °FChilly.9 mph80%30.30 "HgN/A
9:25 pm25 °FCold.9 mph86%30.30 "HgN/A
8:55 pm25 °FCold.7 mph86%30.30 "HgN/A
8:25 pm25 °FCold.8 mph86%30.30 "HgN/A
7:55 pm27 °FChilly.8 mph86%30.30 "HgN/A
7:25 pm27 °FChilly.8 mph86%30.30 "HgN/A
6:55 pm27 °FChilly.8 mph86%30.30 "HgN/A
6:25 pm28 °FChilly.7 mph86%30.30 "HgN/A
5:55 pm28 °FChilly.8 mph86%30.30 "HgN/A
5:25 pm28 °FChilly.7 mph86%30.30 "HgN/A
4:55 pm30 °FChilly.6 mph86%30.30 "HgN/A
4:25 pm32 °FChilly.7 mph80%30.30 "HgN/A
3:55 pm36 °FChilly.8 mph75%30.30 "HgN/A
3:25 pm37 °FChilly.9 mph70%30.30 "HgN/A
2:55 pm37 °FChilly.10 mph70%30.30 "HgN/A
2:25 pm39 °FPassing clouds.8 mph65%30.30 "HgN/A
1:55 pm39 °FChilly.9 mph61%30.33 "HgN/A
1:25 pm39 °FChilly.9 mph65%30.33 "HgN/A
12:55 pm37 °FChilly.8 mph75%30.33 "HgN/A
12:25 pm36 °FChilly.8 mph75%30.33 "HgN/A
11:55 am34 °FChilly.6 mph81%30.33 "HgN/A
11:25 am32 °FChilly.8 mph93%30.36 "HgN/A
10:55 am30 °FChilly.7 mph93%30.36 "HgN/A
10:25 am30 °FIce fog.7 mph93%30.36 "Hg6 mi
9:55 am27 °FIce fog.6 mph100%30.36 "Hg4 mi
9:25 am25 °FIce fog.6 mph100%30.36 "Hg4 mi
9:00 am25 °FIce fog.6 mph100%30.33 "Hg2 mi
8:55 am25 °FIce fog.6 mph100%30.33 "Hg2 mi
8:25 am25 °FIce fog.6 mph93%30.33 "Hg1 mi
7:55 am25 °FIce fog.5 mph100%30.33 "Hg1 mi
7:25 am25 °FIce fog.6 mph93%30.33 "Hg1 mi
7:02 am23 °FIce fog.5 mph100%30.33 "Hg1 mi
6:55 am25 °FIce fog.5 mph93%30.33 "Hg1 mi
6:25 am25 °FIce fog.5 mph100%30.33 "Hg2 mi
6:00 am25 °FIce fog.5 mph93%30.33 "Hg2 mi
5:55 am25 °FIce fog.5 mph100%30.33 "Hg2 mi
5:25 am25 °FIce fog.5 mph93%30.33 "Hg2 mi
4:55 am25 °FIce fog.5 mph93%30.33 "Hg2 mi
4:25 am27 °FIce fog.6 mph93%30.33 "Hg2 mi
3:55 am27 °FIce fog.6 mph100%30.33 "Hg0 mi
3:25 am25 °FIce fog.6 mph100%30.33 "Hg2 mi
3:04 am27 °FIce fog.6 mph93%30.33 "Hg1 mi
2:55 am27 °FIce fog.5 mph100%30.33 "Hg2 mi
2:25 am28 °FIce fog.5 mph93%30.33 "Hg1 mi
2:02 am27 °FIce fog.5 mph100%30.33 "Hg1 mi
1:55 am27 °FIce fog.5 mph100%30.33 "Hg2 mi
1:25 am27 °FIce fog.6 mph100%30.33 "Hg0 mi
Weather by CustomWeather, © 2016

See weather overviewHow to use our weather pages